Wind_Speed
4 7 7 7 8 8 7 3 3 8 5 2 7 14 13 11 11 12 14 14 14 12 11 12 11 11 12
3 6 4 6 6 6 5 5 7 7 7 7 7 10 13 17 17 15 16 17 17 15 12 11 13 14 14
1 4 3 7 6 5 6 6 5 9 13 15 13 10 9 10 11 12 13 13 16 13 11 12 13 14 14
1 2 3 4 5 5 6 7 7 6 5 6 6 6 9 10 9 10 10 10 11 13 14 15 15 16 15
1 1 2 3 4 4 3 4 5 6 7 7 7 9 11 13 15 16 17 19 18 17 15 15 14 15 14
1 1 2 2 3 3 4 4 3 3 8 11 13 14 15 16 17 18 18 17 15 14 14 14 14 15 14
1 1 1 2 2 4 4 3 4 8 10 9 7 7 6 9 9 10 10 11 13 15 15 15 15 14 14
3 2 2 3 4 5 5 6 8 6 4 4 6 8 9 11 12 11 11 14 15 14 14 14 15 15 14
4 5 5 6 6 7 5 4 5 2 4 3 4 11 8 3 1 2 4 4 5 10 14 14 13 13 15
5 4 4 3 4 4 5 3 3 3 2 4 5 7 7 4 3 13 11 10 10 11 12 12 11 12 15
4 2 1 1 1 2 3 3 4 5 7 4 5 8 4 8 12 12 12 6 14 14 18 21 21 18 18
2 1 2 3 5 6 6 7 9 12 13 13 8 8 8 12 12 7 12 16 15 12 13 17 19 19 18
3 3 4 7 8 8 8 8 12 13 13 13 15 16 15 13 16 16 15 10 17 13 10 15 17 17 19
5 6 6 5 5 5 7 11 14 11 7 9 9 13 16 16 19 23 19 13 16 17 18 18 17 17 19
7 7 6 6 7 7 13 14 10 13 14 12 12 14 20 24 21 24 25 23 22 21 16 18 18 19 20
9 10 11 11 13 14 14 12 14 16 17 15 12 12 12 18 20 26 17 19 18 16 15 18 26 23 21
11 12 14 15 14 13 13 13 15 16 17 16 13 10 8 9 14 19 21 18 19 20 19 21 26 32 24
Wind_Direction
313 340 346 346 354 6 357 8 339 75 104 158 249 262 272 273 264 261 265 260 265 273 266 271 274 271 273
309 349 349 357 350 331 318 288 274 271 277 269 239 255 255 267 258 260 264 262 267 263 253 266 268 269 266
6 351 344 6 8 354 331 321 296 265 265 265 264 258 253 260 264 264 260 248 243 256 264 262 268 267 262
52 11 1 9 31 13 355 349 342 333 316 293 286 275 256 249 247 237 235 240 254 263 265 264 259 258 258
51 20 25 21 19 355 346 340 326 320 320 308 292 276 265 260 260 259 258 261 263 263 260 257 255 255 253
41 18 29 23 8 9 6 358 335 342 336 303 296 286 283 274 272 268 268 263 256 250 245 242 242 243 249
99 54 28 356 341 348 346 323 298 310 322 302 314 307 306 292 278 263 258 255 249 243 241 241 242 245 250
70 44 9 333 314 306 310 309 315 312 327 283 321 314 318 302 285 266 265 258 247 243 243 240 245 249 249
296 290 276 273 292 285 287 301 320 308 321 293 320 321 311 311 288 208 280 274 246 243 245 243 242 252 260
311 299 292 279 274 272 277 276 288 300 303 333 320 348 320 299 256 302 302 294 269 251 251 250 249 255 264
334 355 19 25 349 315 300 283 265 259 294 314 288 309 278 300 303 304 302 291 308 277 262 257 258 262 268
335 343 333 320 306 297 292 293 289 281 278 279 270 269 279 290 285 297 301 295 294 287 284 280 268 266 253
299 314 315 308 305 298 287 301 307 295 287 278 274 278 270 256 271 285 307 299 289 279 287 292 284 277 269
295 308 313 316 316 304 303 319 318 312 291 283 286 275 272 266 266 275 280 274 285 283 286 285 280 271 264
291 294 296 292 292 294 303 309 292 296 297 298 302 290 281 277 269 265 273 274 275 285 285 284 279 274 272
281 286 285 287 289 292 292 290 291 293 295 301 303 306 297 294 270 269 268 268 283 284 281 278 284 286 276
282 285 287 288 289 285 284 284 285 288 290 294 291 281 280 277 284 254 258 273 284 283 278 270 270 280 283
Height
819 817 817 817 815 814 814 814 814 811 812 812 813 817 819 820 823 826 827 830 830 831 832 833 833 833 834
817 816 816 815 813 813 812 813 813 813 813 813 815 817 819 821 821 822 823 824 826 826 828 829 830 831 831
815 816 815 814 812 812 812 812 812 812 812 813 813 815 816 816 817 818 819 821 822 822 823 825 826 827 828
815 815 815 814 813 813 813 812 811 811 810 811 811 811 810 811 813 813 815 817 818 819 820 821 822 825 825
816 816 815 815 815 815 814 813 812 811 810 810 810 810 810 810 810 811 812 813 813 814 815 816 817 820 821
816 816 815 815 815 815 815 814 813 812 811 811 809 808 807 806 806 806 806 807 808 809 811 813 815 816 817
816 815 815 815 815 815 814 815 814 812 811 808 807 806 804 803 803 803 803 804 806 807 809 810 810 810 811
815 815 815 815 815 814 814 813 812 811 809 808 806 804 802 801 799 799 800 801 802 803 804 805 805 806 805
814 814 814 813 813 813 813 812 811 810 809 809 807 804 801 799 798 798 798 797 797 798 799 799 800 800 800
812 812 811 811 811 811 810 811 811 809 809 809 807 806 802 798 797 796 795 794 794 794 794 795 796 796 795
811 811 810 810 809 809 809 809 809 809 808 807 806 806 805 800 794 792 791 790 789 789 788 788 789 789 788
810 810 809 809 809 808 807 807 806 806 806 805 804 803 803 800 794 789 788 786 784 782 782 781 780 780 781
809 808 808 808 806 805 805 804 802 800 800 800 799 799 798 796 790 787 785 781 779 777 776 776 774 773 772
806 806 805 805 804 804 802 801 798 796 796 796 795 794 791 790 787 781 781 780 774 773 772 769 766 765 763
804 804 803 802 802 801 799 798 796 793 792 791 790 789 785 782 779 775 771 770 767 765 765 761 758 756 755
801 801 800 799 798 797 795 794 792 789 786 785 784 783 778 771 768 764 765 762 761 760 758 755 748 747 746
797 797 796 794 793 792 791 789 787 785 782 781 779 779 776 770 763 761 759 758 756 753 751 748 742 736 737